Santa Rosa, CA

7:23 PM PDT on July 22, 2017 (GMT -0700)
Sonoma County

Weather History for KSTS - November, 2012

Change the Weather History Date:

Thursday, November 1, 2012

  Actual Average Record
Temperature  
Mean Temperature 58 °F 57 °F  
Max Temperature 68 °F 71 °F 82 °F (1999)
Min Temperature 47 °F 43 °F 31 °F (2003)
Degree Days  
Heating Degree Days 7    
Month to date heating degree days 7  
Since 1 July heating degree days 217  
Cooling Degree Days 0    
Month to date cooling degree days 0  
Year to date cooling degree days 340  
Growing Degree Days 8 (Base 50)    
Moisture  
Dew Point 53 °F    
Average Humidity 76    
Maximum Humidity 100    
Minimum Humidity 52    
Precipitation  
Precipitation 0.02 in 0.16 in 2.08 in (2008)
Month to date precipitation 0.02 0.16  
Year to date precipitation 21.20 24.72  
Since 1 July precipitation 2.41  
Sea Level Pressure  
Sea Level Pressure 30.00 in    
Wind  
Wind Speed 2 mph (SW)    
Max Wind Speed 12 mph    
Max Gust Speed 14 mph    
Visibility 7 miles    
Events Fog , Rain    
T = Trace of Precipitation, MM = Missing Value Source: NWS Daily Summary

Daily Weather History Graph

Daily Weather History Graph

Search for Another Location

Airport or City:

Trip Planner

Search our weather history database for the weather conditions in past years. The results will help you decide how hot, cold, wet, or windy it might be!

Date:

Astronomy

Nov. 01, 2012 Rise Set
Actual Time 7:38 AM PDT 6:10 PM PDT
Civil Twilight 7:10 AM PDT 6:38 PM PDT
Nautical Twilight 6:39 AM PDT 7:09 PM PDT
Astronomical Twilight 6:08 AM PDT 7:40 PM PDT
Moon 8:13 PM PDT (11/1) 10:13 AM PDT (11/1)
Length of Visible Light 11h 27m
Length of Day
10h 32m
Waning Gibbous, 92% of the Moon is Illuminated
Nov 1
Waning Gibbous
Nov 6
Last Quarter
Nov 13
New
Nov 20
First Quarter
Nov 28
Full

Hourly Weather History & Observations

Time (PDT) Temp. Dew Point Humidity Pressure Visibility Wind Dir Wind Speed Gust Speed Precip Events Conditions
12:15 AM 57.2 °F 55.4 °F 94% 29.99 in 4.0 mi Calm Calm - 0.01 in Rain Light Rain
12:24 AM 57.2 °F 55.4 °F 94% 29.99 in 2.5 mi Calm Calm - 0.02 in Rain Light Rain
12:30 AM 57.2 °F 55.4 °F 94% 29.99 in 3.0 mi Calm Calm - 0.02 in Rain Light Rain
12:53 AM 57.9 °F 55.9 °F 93% 29.97 in 10.0 mi Calm Calm - 0.02 in   Overcast
1:53 AM 57.9 °F 55.9 °F 93% 29.97 in 5.0 mi Calm Calm - 0.01 in Rain Light Rain
2:53 AM 57.9 °F 57.0 °F 97% 29.97 in 9.0 mi Calm Calm - 0.00 in   Overcast
3:53 AM 57.9 °F 57.0 °F 97% 29.97 in 10.0 mi Calm Calm - N/A   Overcast
5:53 AM 57.9 °F 57.0 °F 97% 29.98 in 10.0 mi Calm Calm - N/A   Overcast
6:53 AM 57.0 °F 55.9 °F 96% 29.99 in 9.0 mi Calm Calm - N/A   Overcast
7:46 AM 57.2 °F 55.4 °F 94% 30.00 in 10.0 mi Calm Calm - N/A   Scattered Clouds
7:53 AM 57.0 °F 55.0 °F 93% 29.99 in 6.0 mi Calm Calm - N/A Fog Patches of Fog
8:03 AM 55.4 °F 55.4 °F 100% 30.01 in 0.5 mi Calm Calm - 0.01 in Fog Patches of Fog
8:07 AM 55.4 °F 55.4 °F 100% 30.01 in 3.0 mi Calm Calm - 0.01 in Fog Patches of Fog
8:18 AM 55.4 °F 55.4 °F 100% 30.01 in 3.0 mi Calm Calm - 0.01 in Fog Patches of Fog
8:35 AM 57.2 °F 55.4 °F 94% 30.02 in 2.5 mi Calm Calm - 0.01 in   Mostly Cloudy
8:53 AM 57.9 °F 55.9 °F 93% 30.01 in 2.5 mi Calm Calm - 0.01 in   Mostly Cloudy
9:00 AM 57.2 °F 55.4 °F 94% 30.02 in 9.0 mi Calm Calm - N/A   Mostly Cloudy
9:53 AM 59.0 °F 55.9 °F 90% 30.01 in 6.0 mi Calm Calm - N/A   Mostly Cloudy
10:23 AM 60.8 °F 55.4 °F 82% 30.03 in 5.0 mi Calm Calm - N/A   Mostly Cloudy
10:53 AM 62.1 °F 55.9 °F 80% 30.01 in 5.0 mi Calm Calm - N/A   Haze
11:39 AM 62.6 °F 55.4 °F 77% 30.03 in 6.0 mi Calm Calm - 0.00 in   Haze
11:53 AM 62.1 °F 55.0 °F 78% 30.02 in 8.0 mi Calm Calm - 0.00 in   Scattered Clouds
12:53 PM 64.9 °F 54.0 °F 68% 30.01 in 10.0 mi Calm Calm - N/A   Mostly Cloudy
2:53 PM 68.0 °F 51.1 °F 55% 29.98 in 10.0 mi Variable 3.5 mph - N/A   Scattered Clouds
3:53 PM 68.0 °F 50.0 °F 52% 29.98 in 10.0 mi WSW 8.1 mph - N/A   Scattered Clouds
4:53 PM 64.9 °F 46.0 °F 50% 29.98 in 10.0 mi WSW 11.5 mph - N/A   Scattered Clouds
5:53 PM 63.0 °F 46.9 °F 56% 29.99 in 10.0 mi SSW 3.5 mph - N/A   Partly Cloudy
6:53 PM 57.0 °F 48.0 °F 72% 30.00 in 10.0 mi Calm Calm - N/A   Clear
7:53 PM 57.0 °F 48.0 °F 72% 30.01 in 10.0 mi SSW 3.5 mph - N/A   Clear
8:53 PM 51.1 °F 46.9 °F 86% 30.01 in 10.0 mi SE 4.6 mph - N/A   Clear
9:53 PM 50.0 °F 46.9 °F 89% 30.02 in 10.0 mi Calm Calm - N/A   Clear
10:53 PM 50.0 °F 46.9 °F 89% 30.04 in 10.0 mi Calm Calm - N/A   Clear
11:08 PM 48.2 °F 46.4 °F 93% 30.06 in 1.8 mi Calm Calm - N/A   Clear
11:19 PM 48.2 °F 46.4 °F 93% 30.06 in 3.0 mi Calm Calm - N/A   Clear
11:53 PM 48.0 °F 46.0 °F 93% 30.04 in 2.5 mi Calm Calm - N/A   Clear